Location: Boda
(47.1872°N, 9.5454°E)
Time: 18:41:06
(UTC+00:00)

Cosmos 2251 Rocket - Pass Details

Date: 14 May 2021
Orbit: 765 x 791 km, 74.0° (Epoch: 16 June)

Event Time Altitude Azimuth Distance (km) Brightness Sun altitude
Rises 00:41:32 0° 337° (NNW) 3,247 7.4 -21.6°
Reaches altitude 10° 00:43:55 10° 338° (NNW) 2,314 6.6 -21.4°
Maximum altitude 00:49:11 88° 65° (ENE) 773 3.4 -21.1°
Enters shadow 00:51:34 34° 157° (SSE) 1,253 4.2 -20.9°
